Location: Newark
(42.8481°N, 0.4872°E)
Time: 08:53:38
(UTC+00:00)

Transit 2A Rocket - Pass Details

Date: 03 November 2020
Orbit: 588 x 914 km, 66.7° (Epoch: 29 November)

Event Time Altitude Azimuth Distance (km) Brightness Sun altitude
Rises 09:56:08 0° 259° (WSW) 3,537 8.3 27.0°
Reaches altitude 10° 09:59:29 10° 276° (W) 2,579 7.5 27.3°
Maximum altitude 10:03:39 19° 320° (NW) 1,975 6.8 27.7°
Drops below altitude 10° 10:07:41 10° 5° (N) 2,486 7.3 28.0°
Sets 10:10:51 0° 23° (NNE) 3,367 8.0 28.3°
